| time (UTC) | temp F | wind direction | speed knots | gust knots | rain 1hr in | rain 24hr in | rain mn in | humidity % | barometer mb |
| 20260906222350 | 64 | 202 | 2.6 | 5.2 | 0.00 | 0.27 | 0.27 | 80 | 1017.2 |
| 20260906221854 | 64 | 205 | 1.7 | 5.2 | 0.00 | 0.27 | 0.27 | 79 | 1017.2 |
| 20260906221351 | 64 | 206 | 0.9 | 4.3 | 0.00 | 0.27 | 0.27 | 78 | 1017.1 |
| 20260906220852 | 64 | 173 | 1.7 | 4.3 | 0.00 | 0.27 | 0.27 | 77 | 1017.1 |
| 20260906220351 | 64 | 182 | 0.9 | 3.5 | 0.00 | 0.27 | 0.27 | 78 | 1017.1 |
| 20260906215850 | 64 | 188 | 0.9 | 3.5 | 0.00 | 0.27 | 0.27 | 78 | 1017.1 |
| 20260906215355 | 64 | 194 | 1.7 | 7.0 | 0.00 | 0.27 | 0.27 | 82 | 1017.2 |
| 20260906214851 | 64 | 193 | 1.7 | 7.0 | 0.00 | 0.27 | 0.27 | 81 | 1017.2 |
| 20260906214351 | 64 | 189 | 2.6 | 4.3 | 0.00 | 0.27 | 0.27 | 80 | 1017.1 |
| 20260906213854 | 64 | 195 | 1.7 | 5.2 | 0.00 | 0.27 | 0.27 | 81 | 1017.1 |
| 20260906213849 | 64 | 173 | 1.7 | 5.2 | 0.00 | 0.27 | 0.27 | 82 | 1017.1 |
| 20260906212853 | 64 | 180 | 1.7 | 3.5 | 0.00 | 0.27 | 0.27 | 82 | 1017.0 |
| 20260906212849 | 64 | 178 | 1.7 | 3.5 | 0.00 | 0.27 | 0.27 | 82 | 1017.1 |
| 20260906211852 | 63 | 213 | 0.9 | 1.7 | 0.00 | 0.27 | 0.27 | 84 | 1017.1 |
| 20260906211846 | 63 | 171 | 0.9 | 2.6 | 0.00 | 0.27 | 0.27 | 85 | 1017.0 |
| 20260906211459 | 62 | 176 | 0.9 | 2.6 | 0.00 | 0.27 | 0.27 | 84 | 1017.1 |
| 20260906210348 | 62 | 223 | 0.9 | 2.6 | 0.00 | 0.27 | 0.27 | 84 | 1017.0 |
| 20260906205846 | 62 | 220 | 0.9 | 1.7 | 0.00 | 0.27 | 0.27 | 85 | 1017.0 |
| 20260906205346 | 62 | 219 | 0.0 | 1.7 | 0.00 | 0.29 | 0.27 | 85 | 1017.0 |
| 20260906204846 | 62 | 219 | 0.9 | 1.7 | 0.00 | 0.30 | 0.27 | 85 | 1017.0 |
| 20260906204346 | 61 | 219 | 0.9 | 1.7 | 0.00 | 0.31 | 0.27 | 85 | 1017.1 |
| 20260906203843 | 61 | 218 | 0.0 | 1.7 | 0.00 | 0.31 | 0.27 | 86 | 1017.0 |
| 20260906203343 | 61 | 213 | 0.9 | 2.6 | 0.00 | 0.34 | 0.27 | 86 | 1017.0 |
| 20260906202842 | 61 | 213 | 0.9 | 2.6 | 0.00 | 0.36 | 0.27 | 86 | 1017.0 |
| 20260906202343 | 61 | 182 | 0.9 | 2.6 | 0.00 | 0.38 | 0.27 | 87 | 1017.1 |
| 20260906201843 | 61 | 182 | 0.9 | 1.7 | 0.00 | 0.40 | 0.27 | 86 | 1017.1 |
| 20260906201342 | 61 | 172 | 0.0 | 1.7 | 0.00 | 0.41 | 0.27 | 89 | 1017.0 |
| 20260906200843 | 61 | 238 | 0.0 | 1.7 | 0.01 | 0.41 | 0.27 | 88 | 1017.0 |
| 20260906200341 | 61 | 241 | 0.0 | 1.7 | 0.01 | 0.41 | 0.27 | 87 | 1017.0 |
| 20260906195842 | 60 | 241 | 0.0 | 1.7 | 0.01 | 0.41 | 0.27 | 87 | 1017.0 |
| 20260906195342 | 60 | 241 | 0.0 | 1.7 | 0.01 | 0.41 | 0.27 | 89 | 1017.0 |
| 20260906194840 | 60 | 241 | 0.0 | 1.7 | 0.01 | 0.41 | 0.27 | 88 | 1017.0 |
| 20260906194340 | 60 | 241 | 0.0 | 1.7 | 0.01 | 0.41 | 0.27 | 89 | 1016.9 |
| 20260906193840 | 60 | 241 | 0.0 | 1.7 | 0.01 | 0.41 | 0.27 | 89 | 1016.9 |
| 20260906193340 | 60 | 243 | 0.0 | 1.7 | 0.01 | 0.41 | 0.27 | 89 | 1016.9 |
| 20260906192840 | 60 | 242 | 0.0 | 1.7 | 0.01 | 0.41 | 0.27 | 88 | 1016.9 |
| 20260906192340 | 60 | 243 | 0.0 | 1.7 | 0.01 | 0.41 | 0.27 | 89 | 1016.9 |
| 20260906191840 | 60 | 162 | 0.0 | 1.7 | 0.02 | 0.41 | 0.27 | 93 | 1016.9 |
| 20260906191340 | 59 | 269 | 0.0 | 1.7 | 0.02 | 0.41 | 0.27 | 93 | 1016.8 |
| 20260906190844 | 59 | 270 | 0.0 | 2.6 | 0.02 | 0.40 | 0.26 | 91 | 1016.9 |
| 20260906190840 | 59 | 270 | 0.0 | 1.7 | 0.01 | 0.40 | 0.26 | 91 | 1017.0 |
| 20260906185838 | 59 | 270 | 0.0 | 2.6 | 0.02 | 0.40 | 0.26 | 91 | 1016.9 |
| 20260906185338 | 59 | 270 | 0.0 | 2.6 | 0.02 | 0.40 | 0.26 | 92 | 1017.0 |
| 20260906184838 | 59 | 261 | 0.0 | 2.6 | 0.03 | 0.40 | 0.26 | 93 | 1016.9 |
| 20260906184338 | 58 | 278 | 0.0 | 1.7 | 0.03 | 0.40 | 0.26 | 93 | 1016.9 |
| 20260906183839 | 58 | 278 | 0.9 | 1.7 | 0.03 | 0.40 | 0.26 | 93 | 1016.8 |
| 20260906183342 | 58 | 299 | 0.9 | 2.6 | 0.03 | 0.40 | 0.26 | 92 | 1016.7 |
| 20260906183338 | 58 | 298 | 0.9 | 1.7 | 0.03 | 0.40 | 0.26 | 93 | 1016.7 |
| 20260906182337 | 58 | 318 | 0.9 | 2.6 | 0.02 | 0.39 | 0.25 | 93 | 1016.7 |
| 20260906181843 | 57 | 217 | 0.0 | 1.7 | 0.03 | 0.39 | 0.25 | 92 | 1016.6 |
| 20260906181839 | 57 | 232 | 0.0 | 2.6 | 0.03 | 0.39 | 0.25 | 93 | 1016.7 |
| 20260906181450 | 57 | 311 | 0.0 | 1.7 | 0.03 | 0.39 | 0.25 | 93 | 1016.4 |
| 20260906180341 | 57 | 284 | 0.9 | 2.6 | 0.03 | 0.38 | 0.24 | 94 | 1016.4 |
| 20260906180336 | 57 | 317 | 0.9 | 2.6 | 0.02 | 0.38 | 0.24 | 93 | 1016.6 |
| 20260906175337 | 57 | 289 | 0.9 | 2.6 | 0.03 | 0.38 | 0.24 | 94 | 1016.3 |
| 20260906174841 | 57 | 294 | 1.7 | 4.3 | 0.02 | 0.37 | 0.23 | 93 | 1016.3 |
| 20260906174836 | 57 | 292 | 0.9 | 4.3 | 0.02 | 0.37 | 0.23 | 94 | 1016.3 |
| 20260906173836 | 56 | 304 | 0.9 | 3.5 | 0.02 | 0.37 | 0.23 | 93 | 1016.2 |
| 20260906173336 | 56 | 265 | 0.9 | 2.6 | 0.03 | 0.37 | 0.23 | 94 | 1016.2 |
| 20260906172836 | 56 | 275 | 0.9 | 2.6 | 0.03 | 0.37 | 0.23 | 94 | 1016.2 |
| 20260906172336 | 56 | 325 | 0.9 | 2.6 | 0.03 | 0.37 | 0.23 | 94 | 1016.3 |
| 20260906171838 | 56 | 287 | 0.9 | 3.5 | 0.02 | 0.36 | 0.22 | 94 | 1016.2 |
| 20260906171834 | 56 | 309 | 0.9 | 3.5 | 0.02 | 0.36 | 0.22 | 94 | 1016.2 |
| 20260906170834 | 56 | 282 | 0.9 | 3.5 | 0.02 | 0.36 | 0.22 | 94 | 1016.3 |
| 20260906170334 | 56 | 271 | 0.9 | 3.5 | 0.02 | 0.36 | 0.22 | 94 | 1016.3 |
| 20260906165833 | 56 | 271 | 0.9 | 3.5 | 0.02 | 0.35 | 0.21 | 94 | 1016.3 |
| 20260906165334 | 56 | 246 | 0.9 | 3.5 | 0.02 | 0.35 | 0.21 | 95 | 1016.3 |
| 20260906164834 | 56 | 245 | 0.9 | 2.6 | 0.03 | 0.35 | 0.21 | 94 | 1016.3 |
| 20260906164335 | 56 | 271 | 0.0 | 1.7 | 0.03 | 0.35 | 0.21 | 95 | 1016.3 |
| 20260906163833 | 56 | 261 | 0.0 | 1.7 | 0.04 | 0.35 | 0.21 | 95 | 1016.3 |
| 20260906163333 | 56 | 263 | 0.0 | 1.7 | 0.04 | 0.34 | 0.20 | 94 | 1016.4 |
| 20260906162836 | 55 | 242 | 0.9 | 3.5 | 0.06 | 0.34 | 0.20 | 94 | 1016.3 |
| 20260906162832 | 56 | 244 | 0.0 | 1.7 | 0.05 | 0.34 | 0.20 | 95 | 1016.3 |
| 20260906161831 | 55 | 238 | 0.9 | 3.5 | 0.07 | 0.34 | 0.20 | 94 | 1016.3 |
| 20260906161332 | 55 | 250 | 0.9 | 3.5 | 0.08 | 0.34 | 0.20 | 95 | 1016.2 |
| 20260906160837 | 55 | 246 | 0.9 | 4.3 | 0.10 | 0.34 | 0.20 | 95 | 1016.3 |
| 20260906160833 | 55 | 240 | 0.9 | 2.6 | 0.09 | 0.34 | 0.20 | 95 | 1016.3 |
| 20260906155835 | 55 | 251 | 0.9 | 4.3 | 0.09 | 0.33 | 0.19 | 95 | 1016.4 |
| 20260906155831 | 55 | 257 | 1.7 | 4.3 | 0.10 | 0.33 | 0.19 | 95 | 1016.3 |
| 20260906154831 | 55 | 227 | 1.7 | 4.3 | 0.09 | 0.32 | 0.18 | 94 | 1016.2 |
| 20260906154329 | 55 | 225 | 1.7 | 4.3 | 0.09 | 0.32 | 0.18 | 94 | 1016.3 |
| 20260906153833 | 55 | 215 | 0.9 | 2.6 | 0.08 | 0.30 | 0.16 | 94 | 1016.4 |
| 20260906153829 | 55 | 211 | 0.9 | 2.6 | 0.08 | 0.31 | 0.17 | 94 | 1016.4 |
| 20260906152828 | 55 | 214 | 0.9 | 2.6 | 0.07 | 0.29 | 0.15 | 94 | 1016.4 |
| 20260906152328 | 55 | 219 | 0.0 | 1.7 | 0.06 | 0.28 | 0.14 | 94 | 1016.3 |
| 20260906151828 | 55 | 213 | 0.0 | 1.7 | 0.05 | 0.27 | 0.13 | 94 | 1016.3 |
| 20260906151327 | 55 | 213 | 0.0 | 1.7 | 0.04 | 0.26 | 0.12 | 94 | 1016.2 |
| 20260906150828 | 55 | 213 | 0.0 | 1.7 | 0.03 | 0.25 | 0.11 | 94 | 1016.2 |
| 20260906150327 | 55 | 213 | 0.0 | 1.7 | 0.02 | 0.24 | 0.10 | 95 | 1016.1 |
| 20260906145825 | 55 | 213 | 0.0 | 1.7 | 0.02 | 0.24 | 0.10 | 95 | 1016.1 |
| 20260906145325 | 55 | 211 | 0.0 | 1.7 | 0.01 | 0.23 | 0.09 | 95 | 1016.0 |
| 20260906144827 | 55 | 211 | 0.0 | 1.7 | 0.01 | 0.23 | 0.09 | 94 | 1015.9 |
| 20260906144326 | 55 | 211 | 0.0 | 0.0 | 0.01 | 0.23 | 0.09 | 94 | 1015.8 |
| 20260906143826 | 55 | 211 | 0.0 | 0.0 | 0.01 | 0.23 | 0.09 | 94 | 1015.8 |
| 20260906143326 | 55 | 211 | 0.0 | 0.0 | 0.01 | 0.22 | 0.08 | 94 | 1015.8 |
| 20260906142825 | 55 | 211 | 0.0 | 0.0 | 0.01 | 0.22 | 0.08 | 94 | 1015.7 |
| 20260906142327 | 55 | 211 | 0.0 | 0.0 | 0.01 | 0.22 | 0.08 | 94 | 1015.6 |
| 20260906141825 | 55 | 211 | 0.0 | 0.0 | 0.01 | 0.22 | 0.08 | 94 | 1015.5 |
| 20260906141325 | 55 | 211 | 0.0 | 0.0 | 0.01 | 0.22 | 0.08 | 94 | 1015.5 |
| 20260906140826 | 55 | 211 | 0.0 | 0.9 | 0.01 | 0.22 | 0.08 | 94 | 1015.4 |
| 20260906140331 | 55 | 211 | 0.0 | 0.0 | 0.01 | 0.22 | 0.08 | 94 | 1015.3 |
| 20260906140327 | 55 | 211 | 0.0 | 0.9 | 0.01 | 0.22 | 0.08 | 94 | 1015.3 |
| 20260906135825 | 55 | 211 | 0.0 | 0.0 | 0.01 | 0.22 | 0.08 | 94 | 1015.3 |
| 20260906134825 | 55 | 211 | 0.0 | 0.0 | 0.01 | 0.22 | 0.08 | 94 | 1015.3 |
| 20260906134331 | 55 | 211 | 0.0 | 0.9 | 0.01 | 0.22 | 0.08 | 94 | 1015.2 |
| 20260906134326 | 55 | 211 | 0.0 | 0.9 | 0.01 | 0.22 | 0.08 | 94 | 1015.2 |
| 20260906133325 | 55 | 211 | 0.0 | 1.7 | 0.00 | 0.21 | 0.07 | 94 | 1015.2 |
| 20260906132825 | 55 | 211 | 0.0 | 1.7 | 0.01 | 0.21 | 0.07 | 94 | 1015.1 |
| 20260906132325 | 55 | 211 | 0.0 | 1.7 | 0.01 | 0.22 | 0.07 | 94 | 1015.2 |
| 20260906131826 | 55 | 211 | 0.0 | 1.7 | 0.01 | 0.22 | 0.07 | 94 | 1015.2 |
| 20260906131326 | 55 | 211 | 0.0 | 1.7 | 0.01 | 0.22 | 0.07 | 94 | 1015.2 |
| 20260906130826 | 55 | 211 | 0.0 | 1.7 | 0.01 | 0.22 | 0.07 | 93 | 1015.1 |
| 20260906130324 | 55 | 211 | 0.0 | 1.7 | 0.01 | 0.22 | 0.07 | 93 | 1015.2 |
| 20260906125821 | 55 | 240 | 0.0 | 1.7 | 0.01 | 0.22 | 0.07 | 93 | 1015.2 |
| 20260906125322 | 55 | 248 | 0.9 | 3.5 | 0.01 | 0.22 | 0.07 | 93 | 1015.1 |
| 20260906124821 | 55 | 248 | 0.0 | 3.5 | 0.01 | 0.22 | 0.07 | 93 | 1015.3 |
| 20260906124322 | 55 | 263 | 0.0 | 1.7 | 0.02 | 0.22 | 0.07 | 93 | 1015.3 |
| 20260906123821 | 55 | 264 | 0.0 | 1.7 | 0.02 | 0.22 | 0.07 | 93 | 1015.3 |
| 20260906123321 | 55 | 223 | 0.0 | 0.9 | 0.03 | 0.22 | 0.07 | 93 | 1015.3 |
| 20260906122820 | 55 | 223 | 0.0 | 1.7 | 0.05 | 0.21 | 0.06 | 93 | 1015.4 |
| 20260906122319 | 55 | 223 | 0.0 | 1.7 | 0.05 | 0.21 | 0.06 | 93 | 1015.4 |
| 20260906121820 | 55 | 223 | 0.0 | 1.7 | 0.06 | 0.21 | 0.06 | 93 | 1015.4 |
| 20260906121321 | 55 | 223 | 0.0 | 1.7 | 0.06 | 0.21 | 0.06 | 93 | 1015.4 |
| 20260906120821 | 55 | 223 | 0.0 | 1.7 | 0.06 | 0.21 | 0.06 | 93 | 1015.5 |
| 20260906120319 | 55 | 223 | 0.0 | 1.7 | 0.06 | 0.21 | 0.06 | 93 | 1015.4 |
| 20260906115825 | 55 | 225 | 0.9 | 3.5 | 0.06 | 0.21 | 0.06 | 93 | 1015.2 |
| 20260906115821 | 55 | 223 | 0.9 | 2.6 | 0.06 | 0.21 | 0.06 | 93 | 1015.2 |
| 20260906114819 | 55 | 217 | 0.9 | 3.5 | 0.06 | 0.21 | 0.06 | 93 | 1015.3 |
| 20260906114320 | 55 | 217 | 0.9 | 3.5 | 0.05 | 0.20 | 0.05 | 92 | 1015.3 |
| 20260906113820 | 55 | 221 | 0.9 | 3.5 | 0.05 | 0.20 | 0.05 | 92 | 1015.1 |
| 20260906113319 | 55 | 219 | 0.0 | 2.6 | 0.04 | 0.19 | 0.04 | 92 | 1015.1 |
| 20260906112820 | 55 | 220 | 0.0 | 2.6 | 0.01 | 0.16 | 0.01 | 92 | 1015.2 |
| 20260906112319 | 56 | 221 | 0.9 | 2.6 | 0.01 | 0.16 | 0.01 | 92 | 1015.2 |
| 20260906111824 | 55 | 207 | 0.9 | 2.6 | 0.00 | 0.15 | 0.00 | 92 | 1015.1 |
| 20260906111820 | 56 | 11 | 0.9 | 2.6 | 0.00 | 0.15 | 0.00 | 92 | 1015.2 |
| 20260906110819 | 55 | 203 | 0.0 | 1.7 | 0.00 | 0.15 | 0.00 | 92 | 1015.1 |
| 20260906110326 | 55 | 202 | 0.0 | 1.7 | 0.00 | 0.15 | 0.00 | 91 | 1015.1 |
| 20260906110319 | 55 | 202 | 0.0 | 1.7 | 0.00 | 0.15 | 0.00 | 92 | 1015.2 |
| 20260906105818 | 55 | 202 | 0.0 | 1.7 | 0.00 | 0.15 | 0.00 | 91 | 1015.1 |
| 20260906104825 | 55 | 269 | 0.9 | 2.6 | 0.00 | 0.15 | 0.00 | 91 | 1015.0 |
| 20260906104818 | 55 | 202 | 0.9 | 1.7 | 0.00 | 0.15 | 0.00 | 91 | 1015.0 |
| 20260906104317 | 55 | 243 | 0.0 | 1.7 | 0.00 | 0.15 | 0.00 | 91 | 1014.9 |
| 20260906103817 | 55 | 246 | 0.0 | 3.5 | 0.00 | 0.15 | 0.00 | 91 | 1014.9 |
| 20260906103317 | 55 | 240 | 0.9 | 3.5 | 0.00 | 0.15 | 0.00 | 91 | 1014.9 |
| 20260906102317 | 55 | 225 | 0.9 | 2.6 | 0.00 | 0.15 | 0.00 | 91 | 1014.9 |
| 20260906101817 | 55 | 252 | 0.9 | 2.6 | 0.00 | 0.15 | 0.00 | 91 | 1015.0 |
| 20260906101317 | 55 | 244 | 0.9 | 3.5 | 0.00 | 0.15 | 0.00 | 91 | 1015.0 |
| 20260906100816 | 56 | 250 | 0.9 | 3.5 | 0.00 | 0.15 | 0.00 | 91 | 1015.0 |
| 20260906100315 | 55 | 242 | 0.9 | 2.6 | 0.00 | 0.15 | 0.00 | 91 | 1015.1 |
| 20260906095815 | 56 | 278 | 0.9 | 2.6 | 0.00 | 0.15 | 0.00 | 91 | 1015.1 |
| 20260906095315 | 55 | 284 | 0.9 | 2.6 | 0.00 | 0.15 | 0.00 | 91 | 1015.1 |
| 20260906094821 | 55 | 246 | 0.9 | 3.5 | 0.00 | 0.15 | 0.00 | 91 | 1015.0 |
| 20260906094815 | 55 | 240 | 0.0 | 2.6 | 0.00 | 0.15 | 0.00 | 91 | 1015.0 |
| 20260906094428 | 55 | 244 | 0.9 | 3.5 | 0.00 | 0.15 | 0.00 | 91 | 1015.0 |
| 20260906093323 | 55 | 205 | 0.0 | 1.7 | 0.00 | 0.15 | 0.00 | 91 | 1014.9 |
| 20260906093315 | 55 | 253 | 0.9 | 2.6 | 0.00 | 0.15 | 0.00 | 91 | 1014.9 |
| 20260906092933 | 55 | 242 | 0.9 | 2.6 | 0.00 | 0.15 | 0.00 | 91 | 1014.9 |
| 20260906092815 | 55 | 290 | 0.0 | 1.7 | 0.00 | 0.15 | 0.00 | 91 | 1014.9 |
| 20260906091319 | 56 | 246 | 0.9 | 6.1 | 0.00 | 0.15 | 0.00 | 91 | 1014.9 |
| 20260906091313 | 55 | 259 | 0.9 | 2.6 | 0.00 | 0.15 | 0.00 | 91 | 1014.9 |
| 20260906090314 | 56 | 248 | 0.9 | 6.1 | 0.00 | 0.15 | 0.00 | 91 | 1014.9 |
| 20260906085813 | 56 | 229 | 0.9 | 4.3 | 0.00 | 0.15 | 0.00 | 91 | 1014.9 |
| 20260906085315 | 55 | 261 | 0.9 | 5.2 | 0.00 | 0.15 | 0.00 | 91 | 1014.9 |
| 20260906084815 | 55 | 261 | 0.9 | 5.2 | 0.00 | 0.15 | 0.00 | 91 | 1014.9 |
| 20260906084313 | 55 | 237 | 0.9 | 4.3 | 0.00 | 0.15 | 0.00 | 91 | 1014.9 |
| 20260906083814 | 55 | 242 | 1.7 | 4.3 | 0.00 | 0.15 | 0.00 | 91 | 1014.9 |
| 20260906083312 | 55 | 307 | 0.9 | 3.5 | 0.00 | 0.15 | 0.00 | 91 | 1015.0 |
| 20260906082813 | 55 | 215 | 0.9 | 2.6 | 0.00 | 0.15 | 0.00 | 91 | 1015.1 |
| 20260906082311 | 56 | 226 | 0.9 | 3.5 | 0.00 | 0.15 | 0.00 | 91 | 1015.0 |
| 20260906081811 | 56 | 217 | 0.9 | 4.3 | 0.00 | 0.15 | 0.00 | 92 | 1015.0 |
| 20260906081311 | 56 | 245 | 1.7 | 4.3 | 0.00 | 0.15 | 0.00 | 92 | 1015.1 |
| 20260906080811 | 56 | 195 | 0.9 | 3.5 | 0.00 | 0.15 | 0.00 | 92 | 1015.1 |
| 20260906080311 | 56 | 267 | 0.0 | 1.7 | 0.00 | 0.15 | 0.00 | 92 | 1015.0 |
| 20260906075810 | 56 | 223 | 0.0 | 1.7 | 0.00 | 0.15 | 0.00 | 92 | 1015.0 |
| 20260906075310 | 56 | 224 | 0.0 | 2.6 | 0.00 | 0.15 | 0.00 | 92 | 1015.1 |
| 20260906074812 | 56 | 262 | 0.0 | 2.6 | 0.00 | 0.15 | 0.00 | 92 | 1015.1 |
| 20260906074311 | 56 | 284 | 0.0 | 2.6 | 0.00 | 0.15 | 0.00 | 92 | 1015.2 |
| 20260906073811 | 56 | 243 | 0.0 | 2.6 | 0.00 | 0.15 | 0.00 | 91 | 1015.2 |
| 20260906073314 | 56 | 248 | 0.0 | 2.6 | 0.00 | 0.15 | 0.00 | 91 | 1015.2 |
| 20260906073309 | 56 | 246 | 0.0 | 1.7 | 0.00 | 0.15 | 0.00 | 91 | 1015.3 |
| 20260906072310 | 56 | 250 | 0.0 | 2.6 | 0.00 | 0.15 | 0.00 | 91 | 1015.2 |
| 20260906071810 | 56 | 244 | 0.0 | 2.6 | 0.00 | 0.15 | 0.00 | 91 | 1015.3 |
| 20260906071309 | 56 | 278 | 0.0 | 2.6 | 0.00 | 0.15 | 0.00 | 91 | 1015.3 |
| 20260906070811 | 56 | 244 | 0.0 | 2.6 | 0.00 | 0.15 | 0.00 | 91 | 1015.3 |
| 20260906070309 | 56 | 242 | 0.9 | 2.6 | 0.00 | 0.15 | 0.00 | 91 | 1015.3 |
| 20260906065810 | 56 | 190 | 0.9 | 2.6 | 0.00 | 0.15 | 0.15 | 91 | 1015.2 |
| 20260906065309 | 56 | 259 | 0.9 | 2.6 | 0.00 | 0.15 | 0.15 | 91 | 1015.3 |
| 20260906064809 | 56 | 249 | 0.9 | 3.5 | 0.00 | 0.15 | 0.15 | 91 | 1015.3 |
| 20260906064310 | 56 | 212 | 0.9 | 3.5 | 0.00 | 0.15 | 0.15 | 91 | 1015.3 |
| 20260906063809 | 56 | 232 | 0.0 | 2.6 | 0.00 | 0.15 | 0.15 | 91 | 1015.2 |
| 20260906063313 | 56 | 227 | 0.9 | 2.6 | 0.00 | 0.15 | 0.15 | 91 | 1015.3 |
| 20260906063309 | 56 | 225 | 0.9 | 2.6 | 0.00 | 0.15 | 0.15 | 91 | 1015.3 |
| 20260906062309 | 56 | 255 | 0.0 | 2.6 | 0.00 | 0.15 | 0.15 | 91 | 1015.4 |
| 20260906061808 | 56 | 260 | 0.0 | 2.6 | 0.00 | 0.15 | 0.15 | 91 | 1015.4 |
| 20260906061307 | 56 | 261 | 0.0 | 2.6 | 0.00 | 0.15 | 0.15 | 91 | 1015.4 |
| 20260906060807 | 56 | 238 | 0.0 | 2.6 | 0.00 | 0.15 | 0.15 | 91 | 1015.3 |
| 20260906060307 | 57 | 253 | 0.0 | 1.7 | 0.00 | 0.15 | 0.15 | 91 | 1015.4 |
| 20260906055812 | 57 | 255 | 0.9 | 3.5 | 0.00 | 0.15 | 0.15 | 91 | 1015.5 |
| 20260906055808 | 57 | 254 | 0.9 | 3.5 | 0.00 | 0.15 | 0.15 | 91 | 1015.4 |
| 20260906055306 | 57 | 252 | 0.9 | 2.6 | 0.00 | 0.15 | 0.15 | 91 | 1015.5 |
| 20260906054310 | 57 | 258 | 0.0 | 2.6 | 0.00 | 0.15 | 0.15 | 90 | 1015.5 |
| 20260906054305 | 57 | 212 | 0.0 | 1.7 | 0.00 | 0.15 | 0.15 | 91 | 1015.5 |
| 20260906053305 | 57 | 267 | 0.0 | 2.6 | 0.00 | 0.15 | 0.15 | 90 | 1015.5 |
| 20260906052806 | 57 | 226 | 0.0 | 2.6 | 0.00 | 0.15 | 0.15 | 90 | 1015.6 |
| 20260906052305 | 57 | 224 | 0.9 | 2.6 | 0.00 | 0.15 | 0.15 | 90 | 1015.6 |
| 20260906051803 | 57 | 248 | 0.9 | 2.6 | 0.00 | 0.15 | 0.15 | 90 | 1015.7 |
| 20260906051303 | 57 | 219 | 0.9 | 2.6 | 0.00 | 0.15 | 0.15 | 90 | 1015.6 |
| 20260906050805 | 57 | 265 | 0.9 | 3.5 | 0.00 | 0.15 | 0.15 | 90 | 1015.6 |
| 20260906050308 | 58 | 250 | 0.9 | 3.5 | 0.00 | 0.15 | 0.15 | 90 | 1015.5 |
| 20260906050303 | 58 | 253 | 0.9 | 3.5 | 0.00 | 0.15 | 0.15 | 90 | 1015.5 |
| 20260906045416 | 58 | 220 | 0.9 | 3.5 | 0.00 | 0.15 | 0.15 | 89 | 1015.6 |
| 20260906045309 | 58 | 211 | 0.9 | 3.5 | 0.00 | 0.15 | 0.15 | 89 | 1015.6 |
| 20260906045306 | 58 | 211 | 0.9 | 3.5 | 0.00 | 0.15 | 0.15 | 89 | 1015.5 |
| 20260906043804 | 58 | 213 | 0.9 | 3.5 | 0.00 | 0.15 | 0.15 | 89 | 1015.7 |
| 20260906043302 | 58 | 209 | 1.7 | 4.3 | 0.00 | 0.15 | 0.15 | 89 | 1015.7 |
| 20260906042806 | 58 | 182 | 1.7 | 5.2 | 0.00 | 0.15 | 0.15 | 89 | 1015.7 |
| 20260906042801 | 58 | 209 | 2.6 | 5.2 | 0.00 | 0.15 | 0.15 | 89 | 1015.7 |
| 20260906041800 | 58 | 229 | 1.7 | 6.1 | 0.00 | 0.15 | 0.15 | 89 | 1015.7 |
| 20260906041301 | 58 | 212 | 1.7 | 6.1 | 0.00 | 0.15 | 0.15 | 89 | 1015.7 |
| 20260906040801 | 58 | 218 | 1.7 | 3.5 | 0.00 | 0.15 | 0.15 | 89 | 1015.7 |
| 20260906040302 | 58 | 208 | 0.9 | 3.5 | 0.00 | 0.15 | 0.15 | 89 | 1015.7 |
| 20260906035803 | 58 | 238 | 0.9 | 3.5 | 0.00 | 0.15 | 0.15 | 89 | 1015.7 |
| 20260906035301 | 58 | 235 | 0.9 | 2.6 | 0.00 | 0.15 | 0.15 | 89 | 1015.7 |
| 20260906034800 | 58 | 240 | 0.9 | 4.3 | 0.00 | 0.15 | 0.15 | 88 | 1015.7 |
| 20260906034258 | 58 | 247 | 0.9 | 4.3 | 0.00 | 0.15 | 0.15 | 88 | 1015.7 |
| 20260906033759 | 58 | 223 | 0.9 | 2.6 | 0.00 | 0.15 | 0.15 | 87 | 1015.6 |
| 20260906033259 | 59 | 230 | 0.9 | 4.3 | 0.00 | 0.15 | 0.15 | 87 | 1015.6 |
| 20260906032759 | 59 | 213 | 0.9 | 4.3 | 0.00 | 0.15 | 0.15 | 87 | 1015.6 |
| 20260906032258 | 59 | 219 | 1.7 | 4.3 | 0.00 | 0.15 | 0.15 | 87 | 1015.6 |
| 20260906031759 | 59 | 222 | 0.9 | 4.3 | 0.00 | 0.15 | 0.15 | 86 | 1015.6 |
| 20260906031259 | 59 | 202 | 0.9 | 3.5 | 0.00 | 0.15 | 0.15 | 86 | 1015.5 |
| 20260906030759 | 59 | 208 | 0.9 | 3.5 | 0.00 | 0.15 | 0.15 | 86 | 1015.4 |
| 20260906030300 | 59 | 243 | 0.9 | 4.3 | 0.00 | 0.15 | 0.15 | 86 | 1015.4 |
| 20260906025800 | 60 | 234 | 0.9 | 4.3 | 0.00 | 0.15 | 0.15 | 85 | 1015.4 |
| 20260906025257 | 60 | 234 | 0.0 | 2.6 | 0.00 | 0.15 | 0.15 | 85 | 1015.4 |
| 20260906024757 | 60 | 229 | 0.9 | 2.6 | 0.00 | 0.15 | 0.15 | 85 | 1015.5 |
| 20260906024257 | 60 | 205 | 1.7 | 3.5 | 0.00 | 0.15 | 0.15 | 85 | 1015.5 |
| 20260906023758 | 60 | 209 | 1.7 | 3.5 | 0.00 | 0.15 | 0.15 | 84 | 1015.5 |
| 20260906023301 | 60 | 213 | 1.7 | 3.5 | 0.00 | 0.15 | 0.15 | 84 | 1015.6 |
| 20260906023257 | 60 | 215 | 1.7 | 3.5 | 0.00 | 0.15 | 0.15 | 84 | 1015.5 |
| 20260906022255 | 60 | 225 | 1.7 | 3.5 | 0.00 | 0.15 | 0.15 | 84 | 1015.6 |
| 20260906021754 | 61 | 232 | 0.9 | 3.5 | 0.00 | 0.15 | 0.15 | 84 | 1015.6 |
| 20260906021255 | 61 | 244 | 0.9 | 3.5 | 0.00 | 0.15 | 0.15 | 84 | 1015.6 |
| 20260906020757 | 61 | 242 | 0.9 | 3.5 | 0.00 | 0.15 | 0.15 | 83 | 1015.6 |
| 20260906020753 | 61 | 232 | 0.9 | 3.5 | 0.00 | 0.15 | 0.15 | 83 | 1015.6 |
| 20260906015754 | 62 | 216 | 1.7 | 3.5 | 0.00 | 0.15 | 0.15 | 82 | 1015.7 |
| 20260906015251 | 62 | 229 | 0.9 | 2.6 | 0.00 | 0.15 | 0.15 | 82 | 1015.7 |
| 20260906014751 | 62 | 231 | 0.9 | 2.6 | 0.00 | 0.15 | 0.15 | 81 | 1015.7 |
| 20260906014250 | 62 | 223 | 1.7 | 4.3 | 0.00 | 0.15 | 0.15 | 81 | 1015.6 |
| 20260906013749 | 63 | 244 | 1.7 | 4.3 | 0.00 | 0.15 | 0.15 | 80 | 1015.6 |
| 20260906013249 | 63 | 210 | 1.7 | 3.5 | 0.00 | 0.15 | 0.15 | 79 | 1015.6 |
| 20260906012748 | 64 | 221 | 0.9 | 2.6 | 0.00 | 0.15 | 0.15 | 78 | 1015.6 |
| 20260906012249 | 64 | 219 | 0.9 | 3.5 | 0.00 | 0.15 | 0.15 | 79 | 1015.6 |
| 20260906011748 | 64 | 208 | 1.7 | 5.2 | 0.00 | 0.15 | 0.15 | 79 | 1015.6 |
| 20260906011249 | 64 | 291 | 1.7 | 5.2 | 0.00 | 0.15 | 0.15 | 78 | 1015.5 |
| 20260906010748 | 64 | 315 | 0.9 | 4.3 | 0.00 | 0.15 | 0.15 | 79 | 1015.5 |
| 20260906010248 | 64 | 244 | 0.9 | 4.3 | 0.00 | 0.15 | 0.15 | 79 | 1015.4 |
| 20260906005749 | 64 | 259 | 0.9 | 4.3 | 0.00 | 0.15 | 0.15 | 79 | 1015.4 |
| 20260906005249 | 64 | 257 | 0.9 | 3.5 | 0.00 | 0.15 | 0.15 | 79 | 1015.4 |
| 20260906004747 | 64 | 258 | 0.9 | 3.5 | 0.00 | 0.15 | 0.15 | 79 | 1015.4 |
| 20260906004248 | 64 | 239 | 0.9 | 3.5 | 0.00 | 0.15 | 0.15 | 79 | 1015.4 |
| 20260906003747 | 64 | 240 | 0.9 | 3.5 | 0.00 | 0.15 | 0.15 | 79 | 1015.4 |
| 20260906003248 | 64 | 267 | 0.9 | 2.6 | 0.00 | 0.15 | 0.15 | 78 | 1015.4 |
| 20260906002744 | 64 | 257 | 0.9 | 2.6 | 0.00 | 0.15 | 0.15 | 76 | 1015.5 |
| 20260906002246 | 65 | 246 | 0.9 | 2.6 | 0.00 | 0.15 | 0.15 | 76 | 1015.6 |
| 20260906001744 | 65 | 271 | 0.9 | 2.6 | 0.00 | 0.15 | 0.15 | 76 | 1015.6 |
| 20260906001244 | 65 | 285 | 0.9 | 2.6 | 0.00 | 0.15 | 0.15 | 75 | 1015.6 |
| 20260906000744 | 65 | 267 | 1.7 | 6.1 | 0.00 | 0.15 | 0.15 | 75 | 1015.6 |
| 20260906000248 | 66 | 285 | 1.7 | 6.1 | 0.00 | 0.15 | 0.15 | 75 | 1015.6 |
| 20260905235746 | 66 | 310 | 1.7 | 3.5 | 0.00 | 0.15 | 0.15 | 74 | 1015.5 |
| 20260905235246 | 66 | 250 | 1.7 | 4.3 | 0.00 | 0.15 | 0.15 | 77 | 1015.5 |
| 20260905234752 | 66 | 269 | 1.7 | 2.6 | 0.00 | 0.16 | 0.15 | 73 | 1015.5 |
| 20260905234744 | 65 | 270 | 1.7 | 4.3 | 0.00 | 0.15 | 0.15 | 73 | 1015.5 |
| 20260905234246 | 66 | 306 | 0.9 | 2.6 | 0.00 | 0.15 | 0.15 | 73 | 1015.5 |
| 20260905233244 | 66 | 295 | 1.7 | 5.2 | 0.00 | 0.16 | 0.15 | 75 | 1015.5 |
| 20260905232744 | 65 | 273 | 0.9 | 5.2 | 0.00 | 0.16 | 0.15 | 76 | 1015.6 |
| 20260905232244 | 65 | 281 | 0.9 | 3.5 | 0.00 | 0.16 | 0.15 | 77 | 1015.5 |
| 20260905231745 | 65 | 315 | 0.9 | 3.5 | 0.00 | 0.16 | 0.15 | 75 | 1015.6 |
| 20260905231246 | 65 | 344 | 0.9 | 3.5 | 0.00 | 0.16 | 0.15 | 77 | 1015.7 |
| 20260905230745 | 65 | 288 | 0.9 | 3.5 | 0.00 | 0.17 | 0.15 | 78 | 1015.7 |
| 20260905230244 | 65 | 307 | 0.9 | 3.5 | 0.00 | 0.17 | 0.15 | 80 | 1015.7 |
| 20260905225744 | 64 | 248 | 0.9 | 4.3 | 0.00 | 0.17 | 0.15 | 79 | 1015.8 |
| 20260905225244 | 65 | 302 | 0.9 | 4.3 | 0.00 | 0.17 | 0.15 | 80 | 1015.8 |
| 20260905224744 | 65 | 216 | 0.9 | 3.5 | 0.00 | 0.17 | 0.15 | 77 | 1015.9 |
| 20260905224245 | 65 | 306 | 1.7 | 3.5 | 0.00 | 0.17 | 0.15 | 78 | 1015.9 |
| 20260905223744 | 65 | 288 | 0.9 | 3.5 | 0.00 | 0.17 | 0.15 | 78 | 1015.9 |
| 20260905223245 | 65 | 285 | 1.7 | 3.5 | 0.00 | 0.17 | 0.15 | 79 | 1016.0 |
| 20260905222744 | 65 | 306 | 1.7 | 4.3 | 0.00 | 0.17 | 0.15 | 82 | 1016.1 |